SUNSTORM (49068 NORAD) Tracking and Keplerian Element Data

This shows tracking and keplerian element data for the satellite.

Feedback or suggestion? Click here.




ElementValue
Catalog49068
NameSUNSTORM
Epoch Orbit1077
Epoch Day300.77612545
Epoch Year2021
RAAN13.2346
Inclination97.5513
Eccentricity0.0028066
Argument of Perigee13.6241
Mean Anonmoly346.5738
Mean Motion15.0736876
Decay Rate2.208E-05
L11 49068U 21073C 21300.77612545 .00002208 00000-0 14892-3 0 9992
L22 49068 97.5513 13.2346 0028066 13.6241 346.5738 15.07368760 10771

Live tracking and technical data element details for SUNSTORM (NORAD 49068). SUNSTORM can be tracked NOW for your location showing map with azimuth and elevation plus other details from your city location.

Track the satellite on the map from your city or location and see movement details for azimuth, elevation, latitude, longitude, range, height, and movement on the map or in text.







IsCatalogInMostPopularTable: catalog: 49068, numindb: 8
Update: records affected: 1



GetName: 49068 SUNSTORM

Hit Count: updated at: Thu, 28 Oct 2021 11:38:27 GMT